Regional Weather Roundup
Issued by NWS Charleston, WV

Home | Current Version | Previous Version | Text Only | Print | Product List | Glossary Off
Versions: 1 2 3 4 5 6 7 8 9 10 11 12 13 14 15 16 17 18 19 20 21 22 23 24 25 26 27

000
ASUS41 KRLX 152210
RWRRLX
West Virginia Regional Weather Roundup
National Weather Service Charleston WV
600 PM EDT SUN OCT 15 2017

Note: "fair" indicates few or no clouds below 12,000 feet with no
significant weather and/or obstructions to visibility.

WVZ003-152300-
Northern Panhandle of West Virginia

CITY           SKY/WX    TMP DP  RH WIND       PRES   REMARKS
WHEELING       HVY RAIN  67  63  87 W22G39    29.88R VSB 3/4
$$

WVZ009-152300-
Northwest West Virginia

CITY           SKY/WX    TMP DP  RH WIND       PRES   REMARKS
PARKERSBURG    MOCLDY    75  64  68 SW12G22   29.89F
$$

WVZ006-152300-
Western West Virginia

CITY           SKY/WX    TMP DP  RH WIND       PRES   REMARKS
HUNTINGTON     PTCLDY    76  64  66 SW12G17   29.92S
$$

WVZ015-152300-
West Central West Virginia

CITY           SKY/WX    TMP DP  RH WIND       PRES   REMARKS
CHARLESTON     CLOUDY    76  64  66 SW9       29.92F
$$

WVZ022-031-152300-
North Central West Virginia

CITY           SKY/WX    TMP DP  RH WIND       PRES   REMARKS
CLARKSBURG     PTCLDY    76  61  59 SW13      29.88F
MORGANTOWN     PTCLDY    76  61  59 SW12G17   29.87F
$$

WVZ025-035-042-045-152300-
Southern West Virginia

CITY           SKY/WX    TMP DP  RH WIND       PRES   REMARKS
BECKLEY        PTCLDY    73  57  57 SW8       30.01F
LOGAN          CLOUDY    77  61  57 SW6       29.96S
BLUEFIELD      CLEAR     72  54  53 SW12      30.05F
LEWISBURG      PTCLDY    75  56  50 SW8       30.01F
$$

WVZ047-152300-
Northern Mountains of West Virginia

CITY           SKY/WX    TMP DP  RH WIND       PRES   REMARKS
ELKINS         PTCLDY    75  56  51 SW16G23   29.95F
$$

WVZ052-152300-
Eastern Panhandle of West Virginia

CITY           SKY/WX    TMP DP  RH WIND       PRES   REMARKS
MARTINSBURG    CLEAR     77  64  64 VRB5      29.85S
PETERSBURG     PTCLDY    82  53  37 SW7G16    29.87F
$$




USA.gov is the U.S. government's official web portal to all federal, state and local government web resources and services.